Location: Dappach
(48.9767°N, 9.6998°E)
Time: 21:28:05
(UTC+00:00)

COSMOS 2428 - Pass Details

Date: 15 August 2024
Orbit: 842 x 857 km, 70.9° (Epoch: 09 September)

Event Time Altitude Azimuth Distance (km) Brightness Sun altitude
Exits shadow 02:53:00 - 275° (W) 2,779 5.0 -12.3°
Reaches altitude 10° 02:54:11 10° 283° (WNW) 2,480 4.8 -12.1°
Maximum altitude 02:57:55 18° 324° (NW) 2,006 4.7 -11.6°
Drops below altitude 10° 03:01:40 10° 6° (N) 2,494 5.8 -11.1°
Sets 03:05:02 0° 25° (NNE) 3,436 7.1 -10.7°
